�������l�o���
Date,Time,MP-1(��Sv/h),MP-2(��Sv/h),MP-3(��Sv/h),MP-4(��Sv/h),MP-5(��Sv/h),MP-6(��Sv/h),MP-7(��Sv/h),MP-8(��Sv/h),����,����(m/s),���J
2023/03/17,00:00,0.568,0.828,0.503,1.047,0.736,0.324,0.585,0.552,�k��,7.2,��
2023/03/17,00:10,0.570,0.831,0.502,1.045,0.735,0.323,0.583,0.553,�k��,7.4,��
2023/03/17,00:20,0.570,0.831,0.500,1.044,0.734,0.324,0.584,0.553,�k��,6.6,��
2023/03/17,00:30,0.568,0.829,0.500,1.047,0.734,0.324,0.584,0.553,�k,6.6,��
2023/03/17,00:40,0.569,0.830,0.502,1.045,0.733,0.323,0.583,0.553,�k,6.1,�L
2023/03/17,00:50,0.568,0.830,0.501,1.046,0.734,0.321,0.583,0.554,�k,6.8,��
2023/03/17,01:00,0.569,0.830,0.501,1.046,0.734,0.323,0.585,0.552,�k,5.3,�L
2023/03/17,01:10,0.568,0.829,0.501,1.046,0.733,0.323,0.583,0.554,�k,5.5,��
2023/03/17,01:20,0.567,0.830,0.501,1.046,0.733,0.322,0.581,0.552,�k,5.3,��
2023/03/17,01:30,0.566,0.830,0.500,1.045,0.734,0.322,0.582,0.553,�k,5.5,��
2023/03/17,01:40,0.568,0.828,0.500,1.044,0.733,0.323,0.583,0.553,�k,6.0,��
2023/03/17,01:50,0.566,0.831,0.501,1.044,0.733,0.324,0.583,0.552,�k,5.7,��
2023/03/17,02:00,0.567,0.829,0.502,1.045,0.734,0.322,0.584,0.553,�k,5.3,��
2023/03/17,02:10,0.567,0.829,0.500,1.045,0.735,0.322,0.582,0.552,�k,6.0,��
2023/03/17,02:20,0.567,0.829,0.500,1.045,0.733,0.324,0.583,0.553,�k,6.4,��
2023/03/17,02:30,0.567,0.831,0.501,1.045,0.733,0.323,0.583,0.553,�k,7.7,��
2023/03/17,02:40,0.567,0.831,0.502,1.046,0.732,0.323,0.583,0.553,�k,6.5,��
2023/03/17,02:50,0.566,0.830,0.501,1.044,0.731,0.323,0.583,0.552,�k,7.7,��
2023/03/17,03:00,0.567,0.832,0.500,1.045,0.734,0.322,0.582,0.554,�k,8.0,��
2023/03/17,03:10,0.567,0.829,0.501,1.044,0.733,0.322,0.583,0.553,�k,7.0,��
2023/03/17,03:20,0.567,0.831,0.501,1.043,0.735,0.322,0.583,0.553,�k,7.1,��
2023/03/17,03:30,0.569,0.830,0.499,1.045,0.731,0.322,0.584,0.553,�k,7.2,��
2023/03/17,03:40,0.566,0.828,0.499,1.047,0.733,0.323,0.584,0.552,�k,6.8,��
2023/03/17,03:50,0.568,0.827,0.500,1.045,0.734,0.322,0.583,0.553,�k,6.3,��
2023/03/17,04:00,0.568,0.827,0.500,1.046,0.733,0.322,0.584,0.553,�k,6.4,��
2023/03/17,04:10,0.568,0.828,0.500,1.045,0.733,0.322,0.585,0.554,�k,7.1,��
2023/03/17,04:20,0.568,0.828,0.501,1.043,0.733,0.322,0.583,0.553,�k,7.1,��
2023/03/17,04:30,0.568,0.829,0.499,1.044,0.734,0.322,0.584,0.553,�k,7.3,��
2023/03/17,04:40,0.568,0.828,0.500,1.044,0.734,0.323,0.583,0.553,�k,7.0,��
2023/03/17,04:50,0.565,0.830,0.501,1.044,0.733,0.322,0.585,0.552,�k,7.5,��
2023/03/17,05:00,0.565,0.828,0.500,1.042,0.732,0.322,0.585,0.553,�k,8.4,��
2023/03/17,05:10,0.567,0.828,0.501,1.045,0.733,0.322,0.584,0.554,�k,9.2,��
2023/03/17,05:20,0.566,0.829,0.500,1.044,0.732,0.322,0.583,0.555,�k,7.5,��
2023/03/17,05:30,0.567,0.828,0.501,1.046,0.732,0.321,0.584,0.553,�k,8.6,��
2023/03/17,05:40,0.566,0.827,0.499,1.046,0.733,0.322,0.584,0.553,�k,7.6,��
2023/03/17,05:50,0.567,0.829,0.501,1.045,0.732,0.321,0.584,0.553,�k,7.2,��
2023/03/17,06:00,0.567,0.831,0.503,1.044,0.730,0.322,0.584,0.553,�k,7.0,��
2023/03/17,06:10,0.566,0.831,0.501,1.046,0.733,0.323,0.583,0.553,�k,7.5,��
2023/03/17,06:20,0.565,0.828,0.500,1.044,0.732,0.322,0.583,0.553,�k�k��,7.3,��
2023/03/17,06:30,0.566,0.831,0.499,1.044,0.733,0.322,0.583,0.552,�k�k��,7.1,��
2023/03/17,06:40,0.567,0.828,0.500,1.047,0.733,0.322,0.583,0.552,�k,6.9,��
2023/03/17,06:50,0.566,0.828,0.500,1.044,0.733,0.321,0.584,0.554,�k,6.2,��
2023/03/17,07:00,0.565,0.828,0.500,1.046,0.733,0.322,0.585,0.554,�k�k��,6.7,��
2023/03/17,07:10,0.568,0.830,0.500,1.043,0.734,0.321,0.585,0.553,�k,6.7,��
2023/03/17,07:20,0.567,0.830,0.501,1.044,0.733,0.322,0.583,0.553,�k�k��,6.9,��
2023/03/17,07:30,0.566,0.830,0.498,1.045,0.733,0.321,0.582,0.551,�k�k��,6.9,��
2023/03/17,07:40,0.568,0.832,0.500,1.045,0.733,0.320,0.585,0.555,�k,6.5,��
2023/03/17,07:50,0.567,0.831,0.500,1.045,0.733,0.321,0.583,0.554,�k,7.1,��
2023/03/17,08:00,0.567,0.830,0.500,1.046,0.735,0.320,0.584,0.555,�k,7.4,��
2023/03/17,08:10,0.566,0.830,0.500,1.045,0.732,0.321,0.582,0.555,�k�k��,5.7,��
2023/03/17,08:20,0.568,0.831,0.500,1.045,0.734,0.322,0.584,0.554,�k,6.9,��
2023/03/17,08:30,0.568,0.830,0.498,1.044,0.735,0.321,0.583,0.553,�k,7.9,��
2023/03/17,08:40,0.568,0.829,0.535,1.046,0.732,0.322,0.582,0.552,�k,8.1,��
2023/03/17,08:50,0.567,0.830,0.501,1.045,0.733,0.321,0.582,0.553,�k,8.2,��
2023/03/17,09:00,0.569,0.831,0.500,1.045,0.735,0.321,0.581,0.553,�k,8.0,��
2023/03/17,09:10,0.566,0.830,0.500,1.045,0.734,0.321,0.581,0.554,�k,9.3,��
2023/03/17,09:20,0.568,0.832,0.501,1.047,0.737,0.321,0.583,0.553,�k,7.0,��
2023/03/17,09:30,0.568,0.828,0.501,1.047,0.734,0.322,0.581,0.552,�k,8.2,��
2023/03/17,09:40,0.567,0.828,0.501,1.046,0.733,0.322,0.582,0.552,�k,8.5,��
2023/03/17,09:50,0.566,0.827,0.501,1.045,0.733,0.321,0.580,0.553,�k�k��,8.7,��
2023/03/17,10:00,0.569,0.828,0.500,1.045,0.730,0.321,0.581,0.552,�k,8.4,��
2023/03/17,10:10,0.566,0.826,0.521,1.045,0.722,0.322,0.584,0.551,�k�k��,6.4,��
2023/03/17,10:20,0.568,0.829,0.501,1.044,0.731,0.322,0.582,0.553,�k,7.1,��
2023/03/17,10:30,0.564,0.831,0.500,1.047,0.731,0.322,0.582,0.553,�k,8.4,��
2023/03/17,10:40,0.566,0.830,0.500,1.046,0.734,0.322,0.580,0.554,�k,8.0,��
2023/03/17,10:50,0.566,0.830,0.499,1.046,0.735,0.321,0.581,0.552,�k�k��,7.4,��
2023/03/17,11:00,0.569,0.829,0.494,1.047,0.735,0.322,0.580,0.554,�k�k��,7.5,��
2023/03/17,11:10,0.570,0.832,0.500,1.048,0.735,0.321,0.581,0.554,�k�k��,6.8,��
2023/03/17,11:20,0.567,0.830,0.497,1.046,0.735,0.321,0.581,0.554,�k�k��,6.1,��
2023/03/17,11:30,0.569,0.832,0.499,1.045,0.734,0.322,0.582,0.556,�k�k��,6.7,��
2023/03/17,11:40,0.569,0.832,0.501,-,0.734,0.322,0.581,0.553,�k�k��,6.8,��
2023/03/17,11:50,0.569,0.832,0.501,-,0.735,0.321,0.581,0.553,�k�k��,7.0,��
2023/03/17,12:00,0.568,0.831,0.501,-,0.736,0.322,0.581,0.553,�k�k��,6.8,��
2023/03/17,12:10,0.570,0.833,0.500,-,0.737,0.322,0.581,0.553,�k�k��,7.2,��
2023/03/17,12:20,0.567,0.830,0.501,-,0.734,0.322,0.581,0.552,�k,6.3,��
2023/03/17,12:30,0.569,0.832,0.502,-,0.734,0.323,0.582,0.553,�k�k��,6.6,��
2023/03/17,12:40,0.569,0.831,0.503,-,0.733,0.322,0.581,0.554,�k�k��,6.5,��
2023/03/17,12:50,0.569,0.827,0.502,-,0.734,0.322,0.582,0.553,�k�k��,5.7,��
2023/03/17,13:00,0.568,0.828,0.502,-,0.732,0.321,0.582,0.553,�k�k��,5.4,��
2023/03/17,13:10,0.567,0.831,0.503,-,0.731,0.323,0.582,0.552,�k�k��,5.5,��
2023/03/17,13:20,0.570,0.830,0.504,-,0.733,0.323,0.582,0.552,�k�k��,5.1,��
2023/03/17,13:30,0.567,0.831,0.504,-,0.733,0.322,0.583,0.555,�k�k��,5.5,��
2023/03/17,13:40,0.568,0.830,0.502,-,0.733,0.323,0.583,0.552,�k�k��,5.6,��
2023/03/17,13:50,0.567,0.830,0.502,-,0.734,0.322,0.585,0.554,�k�k��,5.3,��
2023/03/17,14:00,0.561,0.830,0.500,-,0.732,0.322,0.585,0.553,�k�k��,4.7,��
2023/03/17,14:10,0.558,0.828,0.502,-,0.733,0.322,0.584,0.553,�k��,5.0,��
2023/03/17,14:20,0.560,0.831,0.502,-,0.733,0.322,0.583,0.551,�k�k��,5.3,��
2023/03/17,14:30,0.568,0.827,0.503,-,0.733,0.324,0.583,0.553,�k�k��,4.5,��
2023/03/17,14:40,0.568,0.828,0.503,-,0.733,0.323,0.584,0.554,�k�k��,4.7,��
2023/03/17,14:50,0.566,0.832,0.502,-,0.733,0.324,0.583,0.551,�k�k��,4.2,��
2023/03/17,15:00,0.569,0.831,0.503,-,0.734,0.323,0.584,0.553,�k�k��,4.0,��
2023/03/17,15:10,0.570,0.830,0.502,-,0.735,0.322,0.584,0.552,�k�k��,3.9,��
2023/03/17,15:20,0.569,0.832,0.503,-,0.736,0.322,0.584,0.552,�k��,3.8,��
2023/03/17,15:30,0.569,0.831,0.503,1.047,0.732,0.323,0.584,0.552,�k�k��,3.3,��
2023/03/17,15:40,0.567,0.831,0.503,1.048,0.735,0.324,0.585,0.553,�k��,3.5,��
2023/03/17,15:50,0.568,0.831,0.503,1.049,0.733,0.323,0.583,0.553,�k�k��,3.2,��
2023/03/17,16:00,0.568,0.831,0.503,1.049,0.733,0.323,0.584,0.553,�k�k��,3.1,��
2023/03/17,16:10,0.568,0.831,0.504,1.051,0.736,0.323,0.582,0.554,�k�k��,2.3,��
2023/03/17,16:20,0.568,0.834,0.503,1.049,0.734,0.322,0.584,0.554,�k��,1.9,��
2023/03/17,16:30,0.569,0.833,0.502,1.049,0.736,0.323,0.584,0.556,�k��,2.3,��
2023/03/17,16:40,0.569,0.833,0.503,1.050,0.733,0.324,0.585,0.556,�k��,2.5,��
2023/03/17,16:50,0.569,0.833,0.503,1.049,0.734,0.323,0.583,0.555,�k��,1.2,��
2023/03/17,17:00,0.568,0.832,0.503,1.051,0.737,0.323,0.584,0.554,�k,1.8,��
2023/03/17,17:10,0.569,0.835,0.504,1.049,0.737,0.323,0.583,0.554,�k,0.9,��
2023/03/17,17:20,0.568,0.834,0.502,1.048,0.737,0.324,0.586,0.555,�k�k��,1.5,��
2023/03/17,17:30,0.569,0.833,0.502,1.048,0.736,0.323,0.586,0.555,�k,0.6,��
2023/03/17,17:40,0.569,0.834,0.503,1.050,0.736,0.324,0.587,0.555,�k�k��,0.9,��
2023/03/17,17:50,0.567,0.835,0.502,1.047,0.737,0.324,0.585,0.554,�k,0.9,��
2023/03/17,18:00,0.567,0.832,0.504,1.049,0.738,0.322,0.586,0.554,�k��,1.2,��
2023/03/17,18:10,0.570,0.834,0.503,1.051,0.736,0.322,0.586,0.554,�k��,1.9,��
2023/03/17,18:20,0.568,0.832,0.504,1.050,0.736,0.323,0.584,0.557,���k��,1.5,��
2023/03/17,18:30,0.568,0.831,0.502,1.050,0.736,0.322,0.586,0.554,��,1.5,��
2023/03/17,18:40,0.569,0.832,0.502,1.049,0.736,0.324,0.586,0.553,��,1.2,��
2023/03/17,18:50,0.568,0.831,0.505,1.049,0.737,0.322,0.587,0.554,��,0.8,��
2023/03/17,19:00,0.567,0.832,0.503,1.049,0.736,0.323,0.587,0.553,��,1.2,��
2023/03/17,19:10,0.567,0.835,0.502,1.048,0.737,0.323,0.586,0.553,���k��,2.2,��
2023/03/17,19:20,0.569,0.834,0.505,1.049,0.736,0.322,0.585,0.554,���k��,3.1,��
2023/03/17,19:30,0.569,0.836,0.502,1.051,0.734,0.322,0.585,0.552,���k��,3.2,��
2023/03/17,19:40,0.570,0.834,0.502,1.049,0.737,0.322,0.584,0.555,���k��,3.5,��
2023/03/17,19:50,0.568,0.833,0.503,1.051,0.737,0.324,0.586,0.553,���k��,2.8,��
2023/03/17,20:00,0.570,0.834,0.503,1.051,0.735,0.322,0.587,0.554,���k��,3.3,��
2023/03/17,20:10,0.568,0.831,0.503,1.048,0.736,0.322,0.588,0.555,�k��,3.2,��
2023/03/17,20:20,0.569,0.833,0.503,1.051,0.734,0.323,0.586,0.554,�k��,3.9,��
2023/03/17,20:30,0.569,0.835,0.505,1.050,0.738,0.323,0.586,0.554,�k��,3.1,��
2023/03/17,20:40,0.568,0.833,0.503,1.049,0.738,0.323,0.585,0.555,�k��,2.8,��
2023/03/17,20:50,0.570,0.834,0.503,1.050,0.736,0.324,0.585,0.555,�k�k��,2.9,��
2023/03/17,21:00,0.568,0.832,0.503,1.050,0.737,0.323,0.585,0.554,�k�k��,2.6,��
2023/03/17,21:10,0.568,0.834,0.503,1.049,0.737,0.322,0.586,0.554,�k�k��,2.6,��
2023/03/17,21:20,0.567,0.836,0.504,1.051,0.735,0.322,0.585,0.553,�k�k��,3.2,��
2023/03/17,21:30,0.569,0.833,0.503,1.051,0.737,0.323,0.587,0.554,�k�k��,3.5,��
2023/03/17,21:40,0.568,0.833,0.505,1.051,0.736,0.322,0.586,0.555,�k��,3.6,��
2023/03/17,21:50,0.570,0.834,0.504,1.049,0.738,0.325,0.586,0.554,�k�k��,3.9,��
2023/03/17,22:00,0.568,0.833,0.503,1.049,0.737,0.322,0.586,0.554,�k��,4.3,��
2023/03/17,22:10,0.567,0.835,0.504,1.051,0.739,0.324,0.585,0.554,�k�k��,5.2,��
2023/03/17,22:20,0.568,0.833,0.504,1.048,0.734,0.323,0.584,0.555,�k�k��,4.2,��
2023/03/17,22:30,0.568,0.834,0.503,1.052,0.737,0.323,0.586,0.556,�k��,4.5,��
2023/03/17,22:40,0.569,0.834,0.503,1.051,0.738,0.322,0.584,0.554,�k��,4.9,��
2023/03/17,22:50,0.568,0.834,0.502,1.050,0.737,0.323,0.586,0.555,�k��,4.4,��
2023/03/17,23:00,0.568,0.834,0.503,1.050,0.736,0.324,0.585,0.554,�k��,4.2,��
2023/03/17,23:10,0.570,0.835,0.503,1.049,0.736,0.323,0.586,0.554,�k��,4.5,��
2023/03/17,23:20,0.567,0.831,0.503,1.053,0.738,0.324,0.585,0.554,�k�k��,5.2,��
2023/03/17,23:30,0.569,0.835,0.503,1.050,0.737,0.323,0.586,0.555,�k��,4.8,��
2023/03/17,23:40,0.569,0.836,0.503,1.049,0.737,0.322,0.584,0.555,�k��,4.7,��
2023/03/17,23:50,0.569,0.834,0.504,1.051,0.736,0.322,0.584,0.553,�k��,4.5,��
